Time,TemperatureF,DewpointF,PressureIn,WindDirection,WindDirectionDegrees,WindSpeedMPH,WindSpeedGustMPH,Humidity,HourlyPrecipIn,Conditions,Clouds,dailyrainin,SoftwareType,DateUTC
2013-04-08 00:00:00,58.0,44.6,30.09,NNW,333,0.0,4.0,61,0.00,,---,0.00,VWS V14.00,2013-04-08 04:00:00,
2013-04-08 00:01:00,58.0,44.6,30.09,NNW,333,0.0,4.0,61,0.00,,---,0.00,VWS V14.00,2013-04-08 04:01:00,
2013-04-08 00:06:00,57.8,44.5,30.09,NNE,14,1.0,5.0,61,0.00,,---,0.00,VWS V14.00,2013-04-08 04:06:00,
2013-04-08 00:11:00,57.6,44.3,30.08,North,360,0.0,6.0,61,0.00,,---,0.00,VWS V14.00,2013-04-08 04:11:00,
2013-04-08 00:16:00,57.5,44.6,30.08,North,11,2.0,6.0,62,0.00,,---,0.00,VWS V14.00,2013-04-08 04:16:00,
2013-04-08 00:21:00,57.2,44.3,30.08,North,11,0.0,6.0,62,0.00,,---,0.00,VWS V14.00,2013-04-08 04:21:00,
2013-04-08 00:26:00,56.9,44.5,30.08,NNE,26,4.0,6.0,63,0.00,,---,0.00,VWS V14.00,2013-04-08 04:26:00,
2013-04-08 00:31:00,56.9,44.5,30.08,NE,41,0.0,6.0,63,0.00,,---,0.00,VWS V14.00,2013-04-08 04:31:00,
2013-04-08 00:36:00,56.9,44.5,30.08,NE,55,0.0,6.0,63,0.00,,---,0.00,VWS V14.00,2013-04-08 04:36:00,
2013-04-08 00:41:00,57.0,44.5,30.08,NNE,14,0.0,4.0,63,0.00,,---,0.00,VWS V14.00,2013-04-08 04:41:00,
2013-04-08 00:46:00,56.9,44.5,30.08,NNE,14,0.0,4.0,63,0.00,,---,0.00,VWS V14.00,2013-04-08 04:46:00,
2013-04-08 00:51:00,56.8,44.3,30.08,NNE,15,0.0,4.0,63,0.00,,---,0.00,VWS V14.00,2013-04-08 04:51:00,
2013-04-08 00:56:00,56.8,44.3,30.08,NNE,15,0.0,4.0,63,0.00,,---,0.00,VWS V14.00,2013-04-08 04:56:00,
2013-04-08 01:01:00,56.8,44.3,30.08,NNE,14,0.0,4.0,63,0.00,,---,0.00,VWS V14.00,2013-04-08 05:01:00,
2013-04-08 01:07:00,56.7,44.3,30.07,NNE,17,0.0,4.0,63,0.00,,---,0.00,VWS V14.00,2013-04-08 05:07:00,
2013-04-08 01:12:00,56.6,44.6,30.07,NNE,16,1.0,3.0,64,0.00,,---,0.00,VWS V14.00,2013-04-08 05:12:00,
2013-04-08 01:17:00,56.4,44.8,30.07,NNE,16,0.0,3.0,65,0.00,,---,0.00,VWS V14.00,2013-04-08 05:17:00,
2013-04-08 01:22:00,56.1,44.5,30.07,NNE,18,1.0,5.0,65,0.00,,---,0.00,VWS V14.00,2013-04-08 05:22:00,
2013-04-08 01:27:00,55.9,44.3,30.07,NNE,18,0.0,5.0,65,0.00,,---,0.00,VWS V14.00,2013-04-08 05:27:00,
2013-04-08 01:31:00,55.8,44.6,30.07,NNE,18,0.0,5.0,66,0.00,,---,0.00,VWS V14.00,2013-04-08 05:31:00,
2013-04-08 01:36:00,55.6,44.4,30.07,NNE,17,0.0,5.0,66,0.00,,---,0.00,VWS V14.00,2013-04-08 05:36:00,
2013-04-08 01:41:00,55.5,44.3,30.07,North,360,1.0,3.0,66,0.00,,---,0.00,VWS V14.00,2013-04-08 05:41:00,
2013-04-08 01:46:00,55.5,44.3,30.07,North,360,3.0,4.0,66,0.00,,---,0.00,VWS V14.00,2013-04-08 05:46:00,
2013-04-08 01:51:00,55.5,44.3,30.07,North,360,0.0,4.0,66,0.00,,---,0.00,VWS V14.00,2013-04-08 05:51:00,
2013-04-08 01:56:00,55.4,44.2,30.07,North,10,2.0,4.0,66,0.00,,---,0.00,VWS V14.00,2013-04-08 05:56:00,
2013-04-08 02:01:00,55.5,44.7,30.06,North,10,2.0,4.0,67,0.00,,---,0.00,VWS V14.00,2013-04-08 06:01:00,
2013-04-08 02:07:00,55.5,44.7,30.06,North,10,1.0,4.0,67,0.00,,---,0.00,VWS V14.00,2013-04-08 06:07:00,
2013-04-08 02:12:00,55.4,44.6,30.06,North,10,1.0,2.0,67,0.00,,---,0.00,VWS V14.00,2013-04-08 06:12:00,
2013-04-08 02:17:00,55.3,44.5,30.06,North,10,0.0,3.0,67,0.00,,---,0.00,VWS V14.00,2013-04-08 06:17:00,
2013-04-08 02:22:00,55.1,44.3,30.06,North,10,0.0,3.0,67,0.00,,---,0.00,VWS V14.00,2013-04-08 06:22:00,
2013-04-08 02:27:00,54.9,44.2,30.06,North,10,0.0,3.0,67,0.00,,---,0.00,VWS V14.00,2013-04-08 06:27:00,
2013-04-08 02:32:00,54.7,44.4,30.06,North,10,1.0,3.0,68,0.00,,---,0.00,VWS V14.00,2013-04-08 06:32:00,
2013-04-08 02:37:00,54.6,44.3,30.05,North,10,0.0,3.0,68,0.00,,---,0.00,VWS V14.00,2013-04-08 06:37:00,
2013-04-08 02:42:00,54.5,44.2,30.06,North,10,0.0,2.0,68,0.00,,---,0.00,VWS V14.00,2013-04-08 06:42:00,
2013-04-08 02:47:00,54.4,44.5,30.05,North,10,0.0,3.0,69,0.00,,---,0.00,VWS V14.00,2013-04-08 06:47:00,
2013-04-08 02:52:00,54.3,44.4,30.05,NNE,14,0.0,3.0,69,0.00,,---,0.00,VWS V14.00,2013-04-08 06:52:00,
2013-04-08 02:57:00,54.4,44.5,30.05,North,355,0.0,5.0,69,0.00,,---,0.00,VWS V14.00,2013-04-08 06:57:00,
2013-04-08 03:02:00,54.4,44.5,30.05,North,355,0.0,5.0,69,0.00,,---,0.00,VWS V14.00,2013-04-08 07:02:00,
2013-04-08 03:07:00,54.4,44.5,30.06,NNW,348,0.0,0.0,69,0.00,,---,0.00,VWS V14.00,2013-04-08 07:07:00,
2013-04-08 03:12:00,54.4,44.5,30.05,North,355,0.0,3.0,69,0.00,,---,0.00,VWS V14.00,2013-04-08 07:12:00,
2013-04-08 03:17:00,54.4,44.5,30.05,North,355,2.0,3.0,69,0.00,,---,0.00,VWS V14.00,2013-04-08 07:17:00,
2013-04-08 03:22:00,54.4,44.5,30.05,North,355,0.0,4.0,69,0.00,,---,0.00,VWS V14.00,2013-04-08 07:22:00,
2013-04-08 03:27:00,54.3,44.7,30.05,North,355,0.0,4.0,70,0.00,,---,0.00,VWS V14.00,2013-04-08 07:27:00,
2013-04-08 03:32:00,54.2,45.0,30.05,North,355,0.0,4.0,71,0.00,,---,0.00,VWS V14.00,2013-04-08 07:32:00,
2013-04-08 03:37:00,54.1,44.5,30.05,North,355,0.0,0.0,70,0.00,,---,0.00,VWS V14.00,2013-04-08 07:37:00,
2013-04-08 03:42:00,54.0,44.5,30.06,North,355,0.0,1.0,70,0.00,,---,0.00,VWS V14.00,2013-04-08 07:42:00,
2013-04-08 03:47:00,53.8,44.6,30.06,North,355,0.0,1.0,71,0.00,,---,0.00,VWS V14.00,2013-04-08 07:47:00,
2013-04-08 03:52:00,53.6,44.4,30.05,North,355,0.0,3.0,71,0.00,,---,0.00,VWS V14.00,2013-04-08 07:52:00,
2013-04-08 03:57:00,53.5,44.3,30.05,North,355,0.0,3.0,71,0.00,,---,0.00,VWS V14.00,2013-04-08 07:57:00,
2013-04-08 04:02:00,53.2,44.0,30.05,North,355,1.0,3.0,71,0.00,,---,0.00,VWS V14.00,2013-04-08 08:02:00,
2013-04-08 04:07:00,53.1,44.0,30.06,North,355,0.0,0.0,71,0.00,,---,0.00,VWS V14.00,2013-04-08 08:07:00,
2013-04-08 04:12:00,52.9,44.1,30.06,North,355,0.0,0.0,72,0.00,,---,0.00,VWS V14.00,2013-04-08 08:12:00,
2013-04-08 04:17:00,52.8,44.4,30.06,NNW,337,0.0,3.0,73,0.00,,---,0.00,VWS V14.00,2013-04-08 08:17:00,
2013-04-08 04:22:00,52.8,44.4,30.06,NNW,338,0.0,3.0,73,0.00,,---,0.00,VWS V14.00,2013-04-08 08:22:00,
2013-04-08 04:27:00,52.8,44.4,30.06,NNW,338,0.0,3.0,73,0.00,,---,0.00,VWS V14.00,2013-04-08 08:27:00,
2013-04-08 04:32:00,52.7,44.3,30.06,NNW,337,0.0,3.0,73,0.00,,---,0.00,VWS V14.00,2013-04-08 08:32:00,
2013-04-08 04:37:00,52.6,44.2,30.06,NNW,337,0.0,0.0,73,0.00,,---,0.00,VWS V14.00,2013-04-08 08:37:00,
2013-04-08 04:42:00,52.4,44.0,30.06,NNW,338,2.0,3.0,73,0.00,,---,0.00,VWS V14.00,2013-04-08 08:42:00,
2013-04-08 04:47:00,52.2,44.2,30.07,NNW,338,0.0,3.0,74,0.00,,---,0.00,VWS V14.00,2013-04-08 08:47:00,
2013-04-08 04:52:00,52.0,44.0,30.07,NNW,337,0.0,3.0,74,0.00,,---,0.00,VWS V14.00,2013-04-08 08:52:00,
2013-04-08 04:57:00,52.0,44.0,30.07,NNW,337,0.0,3.0,74,0.00,,---,0.00,VWS V14.00,2013-04-08 08:57:00,
2013-04-08 05:02:00,52.0,44.3,30.07,NNW,338,0.0,3.0,75,0.00,,---,0.00,VWS V14.00,2013-04-08 09:02:00,
2013-04-08 05:07:00,52.0,44.3,30.06,NNW,338,0.0,0.0,75,0.00,,---,0.00,VWS V14.00,2013-04-08 09:07:00,
2013-04-08 05:12:00,52.1,44.4,30.06,NNW,338,0.0,1.0,75,0.00,,---,0.00,VWS V14.00,2013-04-08 09:12:00,
2013-04-08 05:17:00,52.2,44.5,30.06,NNW,338,0.0,1.0,75,0.00,,---,0.00,VWS V14.00,2013-04-08 09:17:00,
2013-04-08 05:22:00,52.1,44.4,30.06,NNW,338,0.0,1.0,75,0.00,,---,0.00,VWS V14.00,2013-04-08 09:22:00,
2013-04-08 05:27:00,52.1,44.4,30.06,NNW,338,0.0,2.0,75,0.00,,---,0.00,VWS V14.00,2013-04-08 09:27:00,
2013-04-08 05:32:00,52.0,44.3,30.06,NNW,338,0.0,2.0,75,0.00,,---,0.00,VWS V14.00,2013-04-08 09:32:00,
2013-04-08 05:37:00,51.9,44.2,30.07,NNW,338,0.0,0.0,75,0.00,,---,0.00,VWS V14.00,2013-04-08 09:37:00,
2013-04-08 05:42:00,51.9,44.2,30.07,NNW,335,6.0,6.0,75,0.00,,---,0.00,VWS V14.00,2013-04-08 09:42:00,
2013-04-08 05:47:00,51.9,44.2,30.07,NNW,330,0.0,6.0,75,0.00,,---,0.00,VWS V14.00,2013-04-08 09:47:00,
2013-04-08 05:52:00,51.9,44.6,30.07,NNW,330,0.0,6.0,76,0.00,,---,0.00,VWS V14.00,2013-04-08 09:52:00,
2013-04-08 05:57:00,51.9,44.2,30.07,NNW,330,0.0,6.0,75,0.00,,---,0.00,VWS V14.00,2013-04-08 09:57:00,
2013-04-08 06:02:00,51.9,44.2,30.07,NNW,330,0.0,6.0,75,0.00,,---,0.00,VWS V14.00,2013-04-08 10:02:00,
2013-04-08 06:07:00,51.9,44.2,30.08,NNW,330,0.0,0.0,75,0.00,,---,0.00,VWS V14.00,2013-04-08 10:07:00,
2013-04-08 06:12:00,51.8,44.5,30.08,NNW,330,0.0,1.0,76,0.00,,---,0.00,VWS V14.00,2013-04-08 10:12:00,
2013-04-08 06:17:00,51.7,44.0,30.08,NNW,330,0.0,1.0,75,0.00,,---,0.00,VWS V14.00,2013-04-08 10:17:00,
2013-04-08 06:22:00,51.5,44.2,30.08,NNW,330,0.0,1.0,76,0.00,,---,0.00,VWS V14.00,2013-04-08 10:22:00,
2013-04-08 06:27:00,51.5,44.2,30.08,NNW,330,0.0,1.0,76,0.00,,---,0.00,VWS V14.00,2013-04-08 10:27:00,
2013-04-08 06:32:00,51.4,44.1,30.08,NNW,330,0.0,1.0,76,0.00,,---,0.00,VWS V14.00,2013-04-08 10:32:00,
2013-04-08 06:37:00,51.4,44.1,30.08,NNW,330,1.0,1.0,76,0.00,,---,0.00,VWS V14.00,2013-04-08 10:37:00,
2013-04-08 06:42:00,51.4,44.4,30.08,NNW,333,0.0,2.0,77,0.00,,---,0.00,VWS V14.00,2013-04-08 10:42:00,
2013-04-08 06:47:00,51.8,44.8,30.08,NE,51,0.0,4.0,77,0.00,,---,0.00,VWS V14.00,2013-04-08 10:47:00,
2013-04-08 06:52:00,52.0,45.0,30.08,NE,48,4.0,4.0,77,0.00,,---,0.00,VWS V14.00,2013-04-08 10:52:00,
2013-04-08 06:57:00,52.3,45.3,30.09,NNE,21,2.0,4.0,77,0.00,,---,0.00,VWS V14.00,2013-04-08 10:57:00,
2013-04-08 07:02:00,52.6,45.3,30.08,NNE,16,0.0,4.0,76,0.00,,---,0.00,VWS V14.00,2013-04-08 11:02:00,
2013-04-08 07:07:00,52.6,45.3,30.09,NNE,15,0.0,0.0,76,0.00,,---,0.00,VWS V14.00,2013-04-08 11:07:00,
2013-04-08 07:12:00,52.5,44.8,30.09,NNE,15,0.0,1.0,75,0.00,,---,0.00,VWS V14.00,2013-04-08 11:12:00,
2013-04-08 07:17:00,52.3,44.6,30.10,NNE,16,0.0,2.0,75,0.00,,---,0.00,VWS V14.00,2013-04-08 11:17:00,
2013-04-08 07:22:00,52.2,44.9,30.10,NNE,15,2.0,3.0,76,0.00,,---,0.00,VWS V14.00,2013-04-08 11:22:00,
2013-04-08 07:27:00,52.0,45.0,30.11,NNE,15,0.0,3.0,77,0.00,,---,0.00,VWS V14.00,2013-04-08 11:27:00,
2013-04-08 07:32:00,51.9,44.9,30.11,NNE,16,0.0,3.0,77,0.00,,---,0.00,VWS V14.00,2013-04-08 11:32:00,
2013-04-08 07:37:00,51.9,45.3,30.11,NNE,15,0.0,0.0,78,0.00,,---,0.00,VWS V14.00,2013-04-08 11:37:00,
2013-04-08 07:42:00,51.8,44.8,30.11,NNE,15,0.0,0.0,77,0.00,,---,0.00,VWS V14.00,2013-04-08 11:42:00,
2013-04-08 07:47:00,51.7,44.7,30.11,NNE,15,0.0,0.0,77,0.00,,---,0.00,VWS V14.00,2013-04-08 11:47:00,
2013-04-08 07:52:00,51.7,45.1,30.12,NNE,15,0.0,0.0,78,0.00,,---,0.00,VWS V14.00,2013-04-08 11:52:00,
2013-04-08 07:57:00,51.8,45.2,30.12,NNE,16,0.0,0.0,78,0.00,,---,0.00,VWS V14.00,2013-04-08 11:57:00,
2013-04-08 08:02:00,51.9,44.9,30.12,NNE,16,0.0,1.0,77,0.00,,---,0.00,VWS V14.00,2013-04-08 12:02:00,
2013-04-08 08:07:00,52.0,45.4,30.13,NNE,15,0.0,0.0,78,0.00,,---,0.00,VWS V14.00,2013-04-08 12:07:00,
2013-04-08 08:12:00,52.3,46.0,30.13,NNE,20,0.0,4.0,79,0.00,,---,0.00,VWS V14.00,2013-04-08 12:12:00,
2013-04-08 08:17:00,53.0,46.0,30.12,ENE,67,2.0,5.0,77,0.00,,---,0.00,VWS V14.00,2013-04-08 12:17:00,
2013-04-08 08:23:00,53.6,45.5,30.13,NE,49,0.0,5.0,74,0.00,,---,0.00,VWS V14.00,2013-04-08 12:23:00,
2013-04-08 08:28:00,53.9,45.8,30.13,NE,50,0.0,5.0,74,0.00,,---,0.00,VWS V14.00,2013-04-08 12:28:00,
2013-04-08 08:33:00,54.4,46.3,30.13,ENE,67,0.0,5.0,74,0.00,,---,0.00,VWS V14.00,2013-04-08 12:33:00,
2013-04-08 08:38:00,54.7,46.2,30.12,ENE,67,0.0,1.0,73,0.00,,---,0.00,VWS V14.00,2013-04-08 12:38:00,
2013-04-08 08:43:00,55.1,46.6,30.12,ENE,64,0.0,4.0,73,0.00,,---,0.00,VWS V14.00,2013-04-08 12:43:00,
2013-04-08 08:48:00,55.4,46.2,30.12,East,79,0.0,4.0,71,0.00,,---,0.00,VWS V14.00,2013-04-08 12:48:00,
2013-04-08 08:53:00,55.5,46.6,30.12,East,80,0.0,4.0,72,0.00,,---,0.00,VWS V14.00,2013-04-08 12:53:00,
2013-04-08 08:58:00,55.5,46.3,30.12,East,82,0.0,4.0,71,0.00,,---,0.00,VWS V14.00,2013-04-08 12:58:00,
2013-04-08 09:03:00,55.5,46.6,30.12,East,82,0.0,4.0,72,0.00,,---,0.00,VWS V14.00,2013-04-08 13:03:00,
2013-04-08 09:08:00,55.8,47.3,30.12,East,82,0.0,0.0,73,0.00,,---,0.00,VWS V14.00,2013-04-08 13:08:00,
2013-04-08 09:13:00,56.3,47.0,30.12,ENE,61,4.0,4.0,71,0.00,,---,0.00,VWS V14.00,2013-04-08 13:13:00,
2013-04-08 09:18:00,56.9,46.8,30.12,ENE,69,1.0,5.0,69,0.00,,---,0.00,VWS V14.00,2013-04-08 13:18:00,
2013-04-08 09:23:00,57.5,47.4,30.11,ENE,69,3.0,6.0,69,0.00,,---,0.00,VWS V14.00,2013-04-08 13:23:00,
2013-04-08 09:28:00,58.1,48.4,30.11,NE,51,1.0,6.0,70,0.00,,---,0.00,VWS V14.00,2013-04-08 13:28:00,
2013-04-08 09:33:00,58.6,48.1,30.11,SE,142,0.0,6.0,68,0.00,,---,0.00,VWS V14.00,2013-04-08 13:33:00,
2013-04-08 09:38:00,59.0,48.1,30.11,SE,143,0.0,3.0,67,0.00,,---,0.00,VWS V14.00,2013-04-08 13:38:00,
2013-04-08 09:43:00,59.4,48.0,30.11,ENE,59,1.0,3.0,66,0.00,,---,0.00,VWS V14.00,2013-04-08 13:43:00,
2013-04-08 09:48:00,59.8,48.4,30.10,NE,51,3.0,6.0,66,0.00,,---,0.00,VWS V14.00,2013-04-08 13:48:00,
2013-04-08 09:53:00,60.3,49.3,30.10,ESE,109,0.0,6.0,67,0.00,,---,0.00,VWS V14.00,2013-04-08 13:53:00,
2013-04-08 09:58:00,61.3,50.3,30.10,ESE,103,0.0,6.0,67,0.00,,---,0.00,VWS V14.00,2013-04-08 13:58:00,
2013-04-08 10:03:00,62.1,50.2,30.09,ESE,106,0.0,6.0,65,0.00,,---,0.00,VWS V14.00,2013-04-08 14:03:00,
2013-04-08 10:08:00,62.9,50.5,30.09,ESE,107,0.0,1.0,64,0.00,,---,0.00,VWS V14.00,2013-04-08 14:08:00,
2013-04-08 10:13:00,63.7,50.5,30.09,ESE,107,0.0,1.0,62,0.00,,---,0.00,VWS V14.00,2013-04-08 14:13:00,
2013-04-08 10:18:00,64.3,51.5,30.09,SSE,151,2.0,4.0,63,0.00,,---,0.00,VWS V14.00,2013-04-08 14:18:00,
2013-04-08 10:23:00,64.7,51.0,30.09,SW,224,2.0,5.0,61,0.00,,---,0.00,VWS V14.00,2013-04-08 14:23:00,
2013-04-08 10:28:00,64.8,51.9,30.09,NNE,14,0.0,5.0,63,0.00,,---,0.00,VWS V14.00,2013-04-08 14:28:00,
2013-04-08 10:33:00,65.2,51.4,30.09,SW,232,5.0,10.0,61,0.00,,---,0.00,VWS V14.00,2013-04-08 14:33:00,
2013-04-08 10:38:00,65.4,51.2,30.09,SW,222,0.0,6.0,60,0.00,,---,0.00,VWS V14.00,2013-04-08 14:38:00,
2013-04-08 10:43:00,65.4,51.2,30.09,South,173,0.0,9.0,60,0.00,,---,0.00,VWS V14.00,2013-04-08 14:43:00,
2013-04-08 10:48:00,65.4,51.6,30.09,South,185,5.0,9.0,61,0.00,,---,0.00,VWS V14.00,2013-04-08 14:48:00,
2013-04-08 10:53:00,65.2,51.4,30.10,SE,142,5.0,9.0,61,0.00,,---,0.00,VWS V14.00,2013-04-08 14:53:00,
2013-04-08 10:58:00,64.8,51.0,30.09,SSW,205,5.0,10.0,61,0.00,,---,0.00,VWS V14.00,2013-04-08 14:58:00,
2013-04-08 11:03:00,64.8,51.0,30.09,SSW,205,9.0,13.0,61,0.00,,---,0.00,VWS V14.00,2013-04-08 15:03:00,
2013-04-08 11:08:00,64.7,51.0,30.10,South,182,6.0,17.0,61,0.00,,---,0.00,VWS V14.00,2013-04-08 15:08:00,
2013-04-08 11:13:00,64.9,51.6,30.10,WSW,245,4.0,17.0,62,0.00,,---,0.00,VWS V14.00,2013-04-08 15:13:00,
2013-04-08 11:18:00,65.0,50.8,30.09,SSW,200,10.0,17.0,60,0.00,,---,0.00,VWS V14.00,2013-04-08 15:18:00,
2013-04-08 11:23:00,64.8,50.6,30.09,SSE,164,0.0,17.0,60,0.00,,---,0.00,VWS V14.00,2013-04-08 15:23:00,
2013-04-08 11:28:00,64.9,51.2,30.09,NW,317,0.0,17.0,61,0.00,,---,0.00,VWS V14.00,2013-04-08 15:28:00,
2013-04-08 11:33:00,65.9,51.2,30.09,South,175,5.0,17.0,59,0.00,,---,0.00,VWS V14.00,2013-04-08 15:33:00,
2013-04-08 11:38:00,67.1,50.9,30.09,South,175,4.0,6.0,56,0.00,,---,0.00,VWS V14.00,2013-04-08 15:38:00,
2013-04-08 11:43:00,67.2,50.5,30.09,SW,225,4.0,13.0,55,0.00,,---,0.00,VWS V14.00,2013-04-08 15:43:00,
2013-04-08 11:48:00,67.4,50.7,30.09,South,171,14.0,18.0,55,0.00,,---,0.00,VWS V14.00,2013-04-08 15:48:00,
2013-04-08 11:53:00,68.1,51.3,30.09,SSE,157,9.0,18.0,55,0.00,,---,0.00,VWS V14.00,2013-04-08 15:53:00,
2013-04-08 11:58:00,67.4,49.7,30.09,SE,133,2.0,18.0,53,0.00,,---,0.00,VWS V14.00,2013-04-08 15:58:00,
2013-04-08 12:03:00,67.7,50.0,30.09,SSW,208,3.0,18.0,53,0.00,,---,0.00,VWS V14.00,2013-04-08 16:03:00,
2013-04-08 12:08:00,68.3,51.0,30.09,SE,128,5.0,5.0,54,0.00,,---,0.00,VWS V14.00,2013-04-08 16:08:00,
2013-04-08 12:13:00,68.8,50.5,30.08,SSW,202,1.0,13.0,52,0.00,,---,0.00,VWS V14.00,2013-04-08 16:13:00,
2013-04-08 12:18:00,68.2,49.9,30.09,SSE,153,3.0,13.0,52,0.00,,---,0.00,VWS V14.00,2013-04-08 16:18:00,
2013-04-08 12:23:00,68.1,50.3,30.09,WNW,298,3.0,13.0,53,0.00,,---,0.00,VWS V14.00,2013-04-08 16:23:00,
2013-04-08 12:28:00,68.3,51.0,30.09,SSE,148,6.0,13.0,54,0.00,,---,0.00,VWS V14.00,2013-04-08 16:28:00,
2013-04-08 12:33:00,67.6,50.4,30.09,SSE,167,0.0,13.0,54,0.00,,---,0.00,VWS V14.00,2013-04-08 16:33:00,
2013-04-08 12:38:00,67.6,50.4,30.10,WSW,240,2.0,4.0,54,0.00,,---,0.00,VWS V14.00,2013-04-08 16:38:00,
2013-04-08 12:43:00,68.0,52.2,30.09,SW,222,0.0,10.0,57,0.00,,---,0.00,VWS V14.00,2013-04-08 16:43:00,
2013-04-08 12:48:00,68.2,50.4,30.09,SSE,148,4.0,14.0,53,0.00,,---,0.00,VWS V14.00,2013-04-08 16:48:00,
2013-04-08 12:53:00,68.2,50.9,30.09,SE,137,1.0,14.0,54,0.00,,---,0.00,VWS V14.00,2013-04-08 16:53:00,
2013-04-08 12:58:00,67.9,49.7,30.08,East,79,5.0,20.0,52,0.00,,---,0.00,VWS V14.00,2013-04-08 16:58:00,
2013-04-08 13:03:00,68.1,50.3,30.08,SSE,167,7.0,20.0,53,0.00,,---,0.00,VWS V14.00,2013-04-08 17:03:00,
2013-04-08 13:08:00,67.9,49.1,30.08,SSE,155,9.0,11.0,51,0.00,,---,0.00,VWS V14.00,2013-04-08 17:08:00,
2013-04-08 13:13:00,67.7,50.0,30.09,WSW,241,2.0,14.0,53,0.00,,---,0.00,VWS V14.00,2013-04-08 17:13:00,
2013-04-08 13:18:00,67.5,49.8,30.08,WSW,257,0.0,14.0,53,0.00,,---,0.00,VWS V14.00,2013-04-08 17:18:00,
2013-04-08 13:23:00,67.6,49.4,30.08,WSW,255,11.0,14.0,52,0.00,,---,0.00,VWS V14.00,2013-04-08 17:23:00,
2013-04-08 13:28:00,67.7,49.5,30.08,South,188,1.0,14.0,52,0.00,,---,0.00,VWS V14.00,2013-04-08 17:28:00,
2013-04-08 13:33:00,68.5,48.6,30.08,SSW,194,3.0,14.0,49,0.00,,---,0.00,VWS V14.00,2013-04-08 17:33:00,
2013-04-08 13:38:00,69.4,50.0,30.07,South,184,8.0,8.0,50,0.00,,---,0.00,VWS V14.00,2013-04-08 17:38:00,
2013-04-08 13:43:00,69.3,49.3,30.08,SSE,147,3.0,13.0,49,0.00,,---,0.00,VWS V14.00,2013-04-08 17:43:00,
2013-04-08 13:49:00,69.4,48.9,30.07,SSW,199,7.0,16.0,48,0.00,,---,0.00,VWS V14.00,2013-04-08 17:49:00,
2013-04-08 13:54:00,69.7,49.7,30.06,SW,227,0.0,16.0,49,0.00,,---,0.00,VWS V14.00,2013-04-08 17:54:00,
2013-04-08 13:59:00,70.7,50.1,30.06,SE,131,5.0,16.0,48,0.00,,---,0.00,VWS V14.00,2013-04-08 17:59:00,
2013-04-08 14:04:00,71.3,50.6,30.06,South,185,4.0,16.0,48,0.00,,---,0.00,VWS V14.00,2013-04-08 18:04:00,
2013-04-08 14:09:00,71.2,49.4,30.06,South,169,0.0,6.0,46,0.00,,---,0.00,VWS V14.00,2013-04-08 18:09:00,
2013-04-08 14:14:00,71.7,50.4,30.06,South,169,5.0,13.0,47,0.00,,---,0.00,VWS V14.00,2013-04-08 18:14:00,
2013-04-08 14:19:00,71.8,48.7,30.05,South,180,7.0,14.0,44,0.00,,---,0.00,VWS V14.00,2013-04-08 18:19:00,
2013-04-08 14:24:00,71.6,49.2,30.05,SE,134,6.0,14.0,45,0.00,,---,0.00,VWS V14.00,2013-04-08 18:24:00,
2013-04-08 14:29:00,71.3,48.9,30.06,SSE,163,6.0,14.0,45,0.00,,---,0.00,VWS V14.00,2013-04-08 18:29:00,
2013-04-08 14:34:00,71.7,49.8,30.05,SSW,192,10.0,14.0,46,0.00,,---,0.00,VWS V14.00,2013-04-08 18:34:00,
2013-04-08 14:39:00,72.1,49.0,30.05,SSE,154,3.0,7.0,44,0.00,,---,0.00,VWS V14.00,2013-04-08 18:39:00,
2013-04-08 14:44:00,71.9,49.4,30.05,South,188,1.0,11.0,45,0.00,,---,0.00,VWS V14.00,2013-04-08 18:44:00,
2013-04-08 14:49:00,71.6,49.8,30.05,South,176,0.0,11.0,46,0.00,,---,0.00,VWS V14.00,2013-04-08 18:49:00,
2013-04-08 14:54:00,71.6,48.6,30.05,SSE,155,11.0,19.0,44,0.00,,---,0.00,VWS V14.00,2013-04-08 18:54:00,
2013-04-08 14:59:00,71.1,49.3,30.05,SSW,195,5.0,19.0,46,0.00,,---,0.00,VWS V14.00,2013-04-08 18:59:00,
2013-04-08 15:04:00,72.0,49.5,30.05,SSW,194,4.0,19.0,45,0.00,,---,0.00,VWS V14.00,2013-04-08 19:04:00,
2013-04-08 15:09:00,72.5,50.0,30.05,SSE,161,5.0,9.0,45,0.00,,---,0.00,VWS V14.00,2013-04-08 19:09:00,
2013-04-08 15:14:00,71.7,49.2,30.05,WSW,254,0.0,12.0,45,0.00,,---,0.00,VWS V14.00,2013-04-08 19:14:00,
2013-04-08 15:19:00,72.0,49.5,30.05,NW,318,4.0,12.0,45,0.00,,---,0.00,VWS V14.00,2013-04-08 19:19:00,
2013-04-08 15:24:00,72.3,49.8,30.05,SW,217,9.0,12.0,45,0.00,,---,0.00,VWS V14.00,2013-04-08 19:24:00,
2013-04-08 15:29:00,72.1,49.0,30.04,SE,141,0.0,13.0,44,0.00,,---,0.00,VWS V14.00,2013-04-08 19:29:00,
2013-04-08 15:34:00,72.4,49.9,30.05,SE,137,16.0,16.0,45,0.00,,---,0.00,VWS V14.00,2013-04-08 19:34:00,
2013-04-08 15:39:00,71.3,49.5,30.04,SSW,207,4.0,12.0,46,0.00,,---,0.00,VWS V14.00,2013-04-08 19:39:00,
2013-04-08 15:44:00,71.3,49.5,30.04,SSW,210,6.0,12.0,46,0.00,,---,0.00,VWS V14.00,2013-04-08 19:44:00,
2013-04-08 15:49:00,71.5,49.7,30.04,SSW,192,1.0,12.0,46,0.00,,---,0.00,VWS V14.00,2013-04-08 19:49:00,
2013-04-08 15:54:00,72.1,49.6,30.04,SSE,156,1.0,12.0,45,0.00,,---,0.00,VWS V14.00,2013-04-08 19:54:00,
2013-04-08 15:59:00,72.3,49.8,30.03,SSE,155,2.0,12.0,45,0.00,,---,0.00,VWS V14.00,2013-04-08 19:59:00,
2013-04-08 16:04:00,72.1,49.0,30.04,SW,214,4.0,12.0,44,0.00,,---,0.00,VWS V14.00,2013-04-08 20:04:00,
2013-04-08 16:09:00,72.3,49.8,30.04,WSW,243,6.0,11.0,45,0.00,,---,0.00,VWS V14.00,2013-04-08 20:09:00,
2013-04-08 16:14:00,71.7,49.2,30.04,SE,128,6.0,13.0,45,0.00,,---,0.00,VWS V14.00,2013-04-08 20:14:00,
2013-04-08 16:19:00,71.3,49.5,30.04,SSE,159,2.0,13.0,46,0.00,,---,0.00,VWS V14.00,2013-04-08 20:19:00,
2013-04-08 16:24:00,72.1,50.2,30.03,SSE,153,5.0,13.0,46,0.00,,---,0.00,VWS V14.00,2013-04-08 20:24:00,
2013-04-08 16:29:00,72.3,50.4,30.03,ESE,114,4.0,13.0,46,0.00,,---,0.00,VWS V14.00,2013-04-08 20:29:00,
2013-04-08 16:34:00,71.3,48.9,30.04,SSW,210,0.0,17.0,45,0.00,,---,0.00,VWS V14.00,2013-04-08 20:34:00,
2013-04-08 16:40:00,71.9,50.0,30.03,ESE,115,1.0,7.0,46,0.00,,---,0.00,VWS V14.00,2013-04-08 20:40:00,
2013-04-08 16:45:00,72.4,49.9,30.03,South,173,3.0,15.0,45,0.00,,---,0.00,VWS V14.00,2013-04-08 20:45:00,
2013-04-08 16:50:00,72.5,50.0,30.03,SSE,150,1.0,15.0,45,0.00,,---,0.00,VWS V14.00,2013-04-08 20:50:00,
2013-04-08 16:55:00,72.6,50.1,30.03,SW,218,4.0,15.0,45,0.00,,---,0.00,VWS V14.00,2013-04-08 20:55:00,
2013-04-08 17:00:00,72.1,49.6,30.03,SSW,205,8.0,15.0,45,0.00,,---,0.00,VWS V14.00,2013-04-08 21:00:00,
2013-04-08 17:05:00,71.2,49.4,30.04,SSE,168,4.0,15.0,46,0.00,,---,0.00,VWS V14.00,2013-04-08 21:05:00,
2013-04-08 17:10:00,70.5,49.3,30.04,WSW,249,7.0,18.0,47,0.00,,---,0.00,VWS V14.00,2013-04-08 21:10:00,
2013-04-08 17:15:00,70.5,49.9,30.04,South,172,7.0,18.0,48,0.00,,---,0.00,VWS V14.00,2013-04-08 21:15:00,
2013-04-08 17:20:00,70.4,49.8,30.04,SSE,150,0.0,18.0,48,0.00,,---,0.00,VWS V14.00,2013-04-08 21:20:00,
2013-04-08 17:25:00,70.3,49.1,30.04,West,281,6.0,18.0,47,0.00,,---,0.00,VWS V14.00,2013-04-08 21:25:00,
2013-04-08 17:30:00,70.4,49.8,30.04,SSE,167,5.0,18.0,48,0.00,,---,0.00,VWS V14.00,2013-04-08 21:30:00,
2013-04-08 17:35:00,70.4,49.8,30.04,SSE,159,9.0,18.0,48,0.00,,---,0.00,VWS V14.00,2013-04-08 21:35:00,
2013-04-08 17:40:00,70.1,50.1,30.04,SSE,150,4.0,6.0,49,0.00,,---,0.00,VWS V14.00,2013-04-08 21:40:00,
2013-04-08 17:45:00,69.7,49.2,30.04,SE,145,2.0,9.0,48,0.00,,---,0.00,VWS V14.00,2013-04-08 21:45:00,
2013-04-08 17:50:00,69.4,49.4,30.05,SE,134,4.0,15.0,49,0.00,,---,0.00,VWS V14.00,2013-04-08 21:50:00,
2013-04-08 17:55:00,69.2,49.8,30.05,SW,223,5.0,15.0,50,0.00,,---,0.00,VWS V14.00,2013-04-08 21:55:00,
2013-04-08 18:00:00,69.2,49.2,30.05,WSW,253,4.0,15.0,49,0.00,,---,0.00,VWS V14.00,2013-04-08 22:00:00,
2013-04-08 18:05:00,69.0,49.6,30.05,SSE,162,0.0,15.0,50,0.00,,---,0.00,VWS V14.00,2013-04-08 22:05:00,
2013-04-08 18:10:00,69.0,49.6,30.05,SSE,157,2.0,10.0,50,0.00,,---,0.00,VWS V14.00,2013-04-08 22:10:00,
2013-04-08 18:15:00,69.1,49.7,30.05,SSE,159,8.0,11.0,50,0.00,,---,0.00,VWS V14.00,2013-04-08 22:15:00,
2013-04-08 18:20:00,69.0,49.6,30.05,SSW,205,4.0,15.0,50,0.00,,---,0.00,VWS V14.00,2013-04-08 22:20:00,
2013-04-08 18:25:00,69.0,49.6,30.05,SSW,197,2.0,15.0,50,0.00,,---,0.00,VWS V14.00,2013-04-08 22:25:00,
2013-04-08 18:30:00,68.9,49.5,30.05,South,191,0.0,15.0,50,0.00,,---,0.00,VWS V14.00,2013-04-08 22:30:00,
2013-04-08 18:35:00,68.8,49.4,30.05,South,176,4.0,15.0,50,0.00,,---,0.00,VWS V14.00,2013-04-08 22:35:00,
2013-04-08 18:40:00,68.6,49.2,30.05,South,178,3.0,15.0,50,0.00,,---,0.00,VWS V14.00,2013-04-08 22:40:00,
2013-04-08 18:45:00,68.5,49.2,30.05,SSW,211,0.0,15.0,50,0.00,,---,0.00,VWS V14.00,2013-04-08 22:45:00,
2013-04-08 18:50:00,68.3,49.5,30.06,South,178,10.0,15.0,51,0.00,,---,0.00,VWS V14.00,2013-04-08 22:50:00,
2013-04-08 18:55:00,68.0,49.7,30.06,SSE,151,0.0,15.0,52,0.00,,---,0.00,VWS V14.00,2013-04-08 22:55:00,
2013-04-08 19:00:00,67.9,50.2,30.06,SW,214,5.0,15.0,53,0.00,,---,0.00,VWS V14.00,2013-04-08 23:00:00,
2013-04-08 19:05:00,67.9,50.2,30.06,WSW,254,3.0,15.0,53,0.00,,---,0.00,VWS V14.00,2013-04-08 23:05:00,
2013-04-08 19:10:00,67.8,50.1,30.05,WSW,240,2.0,4.0,53,0.00,,---,0.00,VWS V14.00,2013-04-08 23:10:00,
2013-04-08 19:15:00,67.8,50.1,30.06,SSE,151,4.0,4.0,53,0.00,,---,0.00,VWS V14.00,2013-04-08 23:15:00,
2013-04-08 19:20:00,67.7,50.0,30.06,SW,223,0.0,7.0,53,0.00,,---,0.00,VWS V14.00,2013-04-08 23:20:00,
2013-04-08 19:25:00,67.7,50.0,30.06,South,180,2.0,10.0,53,0.00,,---,0.00,VWS V14.00,2013-04-08 23:25:00,
2013-04-08 19:30:00,67.6,49.9,30.06,SSE,160,2.0,10.0,53,0.00,,---,0.00,VWS V14.00,2013-04-08 23:30:00,
2013-04-08 19:35:00,67.5,49.8,30.06,SSW,200,1.0,10.0,53,0.00,,---,0.00,VWS V14.00,2013-04-08 23:35:00,
2013-04-08 19:40:00,67.4,49.7,30.07,SSE,167,4.0,10.0,53,0.00,,---,0.00,VWS V14.00,2013-04-08 23:40:00,
2013-04-08 19:45:00,67.4,49.7,30.06,SSE,157,1.0,12.0,53,0.00,,---,0.00,VWS V14.00,2013-04-08 23:45:00,
2013-04-08 19:50:00,67.3,49.6,30.06,WSW,252,3.0,12.0,53,0.00,,---,0.00,VWS V14.00,2013-04-08 23:50:00,
2013-04-08 19:55:00,67.1,49.4,30.06,SSW,196,0.0,12.0,53,0.00,,---,0.00,VWS V14.00,2013-04-08 23:55:00,
2013-04-08 20:00:00,67.0,49.8,30.07,SSE,163,0.0,13.0,54,0.00,,---,0.00,VWS V14.00,2013-04-09 00:00:00,
2013-04-08 20:05:00,66.9,49.7,30.06,SSW,196,0.0,13.0,54,0.00,,---,0.00,VWS V14.00,2013-04-09 00:05:00,
2013-04-08 20:10:00,66.7,49.5,30.05,SW,223,0.0,6.0,54,0.00,,---,0.00,VWS V14.00,2013-04-09 00:10:00,
2013-04-08 20:15:00,66.6,49.5,30.06,West,279,0.0,6.0,54,0.00,,---,0.00,VWS V14.00,2013-04-09 00:15:00,
2013-04-08 20:20:00,66.4,49.3,30.06,West,273,0.0,6.0,54,0.00,,---,0.00,VWS V14.00,2013-04-09 00:20:00,
2013-04-08 20:25:00,66.3,49.7,30.06,West,273,0.0,6.0,55,0.00,,---,0.00,VWS V14.00,2013-04-09 00:25:00,
2013-04-08 20:30:00,66.1,49.5,30.06,West,268,0.0,9.0,55,0.00,,---,0.00,VWS V14.00,2013-04-09 00:30:00,
2013-04-08 20:35:00,66.0,49.4,30.06,WSW,240,0.0,9.0,55,0.00,,---,0.00,VWS V14.00,2013-04-09 00:35:00,
2013-04-08 20:40:00,65.9,49.3,30.06,WSW,240,0.0,1.0,55,0.00,,---,0.00,VWS V14.00,2013-04-09 00:40:00,
2013-04-08 20:45:00,65.8,49.2,30.07,WSW,240,0.0,1.0,55,0.00,,---,0.00,VWS V14.00,2013-04-09 00:45:00,
2013-04-08 20:50:00,65.6,49.5,30.07,WSW,240,0.0,1.0,56,0.00,,---,0.00,VWS V14.00,2013-04-09 00:50:00,
2013-04-08 20:55:00,65.5,49.4,30.07,WSW,256,1.0,2.0,56,0.00,,---,0.00,VWS V14.00,2013-04-09 00:55:00,
2013-04-08 21:00:00,65.3,49.2,30.07,South,181,0.0,3.0,56,0.00,,---,0.00,VWS V14.00,2013-04-09 01:00:00,
2013-04-08 21:05:00,65.2,49.6,30.07,South,187,0.0,3.0,57,0.00,,---,0.00,VWS V14.00,2013-04-09 01:05:00,
2013-04-08 21:10:00,65.0,49.4,30.05,WSW,257,0.0,5.0,57,0.00,,---,0.00,VWS V14.00,2013-04-09 01:10:00,
2013-04-08 21:15:00,65.0,49.4,30.05,WSW,249,0.0,5.0,57,0.00,,---,0.00,VWS V14.00,2013-04-09 01:15:00,
2013-04-08 21:20:00,65.0,49.4,30.05,NNW,341,0.0,5.0,57,0.00,,---,0.00,VWS V14.00,2013-04-09 01:20:00,
2013-04-08 21:25:00,65.0,49.4,30.06,NNW,342,0.0,5.0,57,0.00,,---,0.00,VWS V14.00,2013-04-09 01:25:00,
2013-04-08 21:30:00,64.9,49.3,30.06,WNW,296,0.0,5.0,57,0.00,,---,0.00,VWS V14.00,2013-04-09 01:30:00,
2013-04-08 21:35:00,64.9,49.8,30.06,WNW,296,0.0,5.0,58,0.00,,---,0.00,VWS V14.00,2013-04-09 01:35:00,
2013-04-08 21:40:00,64.8,49.7,30.06,WNW,294,0.0,3.0,58,0.00,,---,0.00,VWS V14.00,2013-04-09 01:40:00,
2013-04-08 21:45:00,64.8,49.7,30.06,WSW,237,3.0,5.0,58,0.00,,---,0.00,VWS V14.00,2013-04-09 01:45:00,
2013-04-08 21:50:00,64.8,50.2,30.06,SW,217,0.0,5.0,59,0.00,,---,0.00,VWS V14.00,2013-04-09 01:50:00,
2013-04-08 21:55:00,64.7,50.1,30.06,SW,221,0.0,5.0,59,0.00,,---,0.00,VWS V14.00,2013-04-09 01:55:00,
2013-04-08 22:00:00,64.7,50.1,30.07,SW,228,0.0,5.0,59,0.00,,---,0.00,VWS V14.00,2013-04-09 02:00:00,
2013-04-08 22:05:00,64.6,50.0,30.07,SW,228,3.0,5.0,59,0.00,,---,0.00,VWS V14.00,2013-04-09 02:05:00,
2013-04-08 22:10:00,64.5,49.9,30.06,NE,51,2.0,4.0,59,0.00,,---,0.00,VWS V14.00,2013-04-09 02:10:00,
2013-04-08 22:15:00,64.5,50.3,30.06,SSE,165,0.0,6.0,60,0.00,,---,0.00,VWS V14.00,2013-04-09 02:15:00,
2013-04-08 22:20:00,64.5,50.3,30.06,NNE,12,0.0,6.0,60,0.00,,---,0.00,VWS V14.00,2013-04-09 02:20:00,
2013-04-08 22:25:00,64.6,50.4,30.06,SSE,151,1.0,6.0,60,0.00,,---,0.00,VWS V14.00,2013-04-09 02:25:00,
2013-04-08 22:30:00,64.7,50.5,30.06,SW,234,0.0,6.0,60,0.00,,---,0.00,VWS V14.00,2013-04-09 02:30:00,
2013-04-08 22:35:00,64.7,50.5,30.06,WSW,246,0.0,6.0,60,0.00,,---,0.00,VWS V14.00,2013-04-09 02:35:00,
2013-04-08 22:40:00,64.6,50.4,30.07,ESE,122,0.0,5.0,60,0.00,,---,0.00,VWS V14.00,2013-04-09 02:40:00,
2013-04-08 22:45:00,64.5,50.3,30.06,ENE,76,0.0,5.0,60,0.00,,---,0.00,VWS V14.00,2013-04-09 02:45:00,
2013-04-08 22:50:00,64.3,50.1,30.07,SSE,156,0.0,5.0,60,0.00,,---,0.00,VWS V14.00,2013-04-09 02:50:00,
2013-04-08 22:55:00,64.2,50.5,30.07,SSE,156,0.0,5.0,61,0.00,,---,0.00,VWS V14.00,2013-04-09 02:55:00,
2013-04-08 23:00:00,64.1,50.4,30.07,SSE,157,0.0,5.0,61,0.00,,---,0.00,VWS V14.00,2013-04-09 03:00:00,
2013-04-08 23:05:00,63.9,50.2,30.07,SE,146,0.0,5.0,61,0.00,,---,0.00,VWS V14.00,2013-04-09 03:05:00,
2013-04-08 23:10:00,63.5,50.3,30.06,East,81,2.0,4.0,62,0.00,,---,0.00,VWS V14.00,2013-04-09 03:10:00,
2013-04-08 23:15:00,63.4,50.2,30.07,East,81,0.0,4.0,62,0.00,,---,0.00,VWS V14.00,2013-04-09 03:15:00,
2013-04-08 23:20:00,63.3,50.1,30.07,East,81,0.0,4.0,62,0.00,,---,0.00,VWS V14.00,2013-04-09 03:20:00,
2013-04-08 23:25:00,63.1,50.7,30.07,NE,53,3.0,5.0,64,0.00,,---,0.00,VWS V14.00,2013-04-09 03:25:00,
2013-04-08 23:30:00,62.9,50.1,30.07,NE,53,0.0,5.0,63,0.00,,---,0.00,VWS V14.00,2013-04-09 03:30:00,
2013-04-08 23:35:00,62.9,50.1,30.07,NE,53,0.0,5.0,63,0.00,,---,0.00,VWS V14.00,2013-04-09 03:35:00,
2013-04-08 23:40:00,62.8,50.0,30.07,NE,53,0.0,2.0,63,0.00,,---,0.00,VWS V14.00,2013-04-09 03:40:00,
2013-04-08 23:45:00,62.8,50.0,30.07,NE,53,3.0,3.0,63,0.00,,---,0.00,VWS V14.00,2013-04-09 03:45:00,
2013-04-08 23:50:00,62.7,49.9,30.07,NE,53,0.0,3.0,63,0.00,,---,0.00,VWS V14.00,2013-04-09 03:50:00,
2013-04-08 23:55:00,62.6,49.8,30.07,NE,46,0.0,6.0,63,0.00,,---,0.00,VWS V14.00,2013-04-09 03:55:00,